DateTimeUTC,F1_A11,F1_S11,BsB_S11,BsG_S11,BsR_S11,BbsB_S11,BbsG_S11,BbsR_S11,BaB_A11,BaG_A11,BaR_A11,Tu_S11,T_S11,Uu_S11,U_S11,P_S11,T1_A11
2021-04-28T11:00:00Z,00040200,20000000,,,,,,,-000.23,0000.10,-000.43,19.1,26.1,03.2,02.1,0682.3,31.2
2021-04-28T11:01:00Z,00040200,20000000,,,,,,,-000.18,-000.27,0000.59,19.1,26.1,03.2,02.1,0682.3,31.2
2021-04-28T11:02:00Z,00040200,20000000,,,,,,,0000.11,0000.26,-000.61,19.1,26.1,03.2,02.1,0682.3,31.2
2021-04-28T11:03:00Z,00040200,60000000,,,,,,,0000.35,-000.05,0000.29,19.1,26.1,03.2,02.1,0682.3,31.2
2021-04-28T11:04:00Z,00040200,40000000,0001.58,0000.76,0000.22,0000.16,0000.38,0000.05,0000.56,0000.51,0000.40,19.2,26.0,03.0,02.0,0683.2,31.2
2021-04-28T11:05:00Z,00040200,00000000,0001.15,0000.78,0000.75,0000.23,0000.23,0000.43,0000.10,0000.49,0000.44,19.2,25.9,03.0,02.0,0683.3,31.2
2021-04-28T11:06:00Z,00040200,00000000,0001.10,0000.64,0000.83,-000.21,0000.17,0000.17,0000.66,0000.63,0000.18,19.2,25.9,03.1,02.0,0683.3,31.2
2021-04-28T11:07:00Z,00040200,00000000,0000.75,0000.94,0000.40,0000.02,0000.17,0000.13,0001.10,0000.84,0000.87,19.2,25.9,03.2,02.1,0683.3,31.2
2021-04-28T11:08:00Z,00040200,00000000,0000.69,0000.92,0000.84,0000.43,0000.06,0000.24,0000.43,0000.13,0000.15,19.3,25.9,03.2,02.2,0683.3,31.2
2021-04-28T11:09:00Z,00040200,00000000,0000.68,0000.79,0000.69,0000.19,0000.35,0000.34,0000.69,0000.71,0000.56,19.3,25.9,03.3,02.2,0683.3,31.2
2021-04-28T11:10:00Z,00040200,00000000,0000.51,0000.89,0000.51,0000.00,0000.31,0000.43,0000.77,0000.57,0000.29,19.3,25.9,03.4,02.2,0683.3,31.2
2021-04-28T11:11:00Z,00040200,00000000,0000.77,0000.76,0000.42,0000.57,0000.26,0000.20,0000.82,0001.28,0000.62,19.3,25.9,03.6,02.4,0683.3,31.2
2021-04-28T11:12:00Z,00040200,00000000,0000.76,0000.83,0000.59,0000.13,0000.19,-000.02,0000.81,0000.58,0001.01,19.3,25.9,03.8,02.6,0683.3,31.2
2021-04-28T11:13:00Z,00040200,00000000,0001.05,0000.78,0000.51,-000.45,0000.43,0000.15,0000.78,0000.54,0000.20,19.3,25.9,04.0,02.7,0683.3,31.2
2021-04-28T11:14:00Z,00040200,00000000,0000.74,0000.91,0000.40,0000.35,-000.05,-000.15,0000.20,0000.18,0000.35,19.3,25.9,03.8,02.6,0683.3,31.2
2021-04-28T11:15:00Z,00040200,00000000,0001.69,0000.98,0000.89,-000.25,-000.06,0000.32,0000.41,0000.36,0000.34,19.3,25.9,03.9,02.6,0683.3,31.2
2021-04-28T11:16:00Z,00040200,00000000,0001.01,0000.76,0000.27,-000.26,-000.07,0000.10,0000.79,0000.62,0000.44,19.3,25.9,03.8,02.6,0683.3,31.2
2021-04-28T11:17:00Z,00040200,00000000,0000.84,0000.85,0000.37,0000.13,0000.29,0000.19,0000.09,0000.42,0000.30,19.3,25.9,03.7,02.5,0683.3,31.2
2021-04-28T11:18:00Z,00040200,00000000,0001.44,0000.67,0000.83,0000.15,0000.09,0000.50,0000.82,-000.01,0000.55,19.3,25.9,03.7,02.5,0683.3,31.2
2021-04-28T11:19:00Z,00040200,00000000,0001.66,0000.83,0000.47,0000.12,0000.39,0000.29,0000.02,0000.62,-000.37,19.3,25.9,03.6,02.4,0683.3,31.2
2021-04-28T11:20:00Z,00040200,00000000,0001.47,0000.82,0000.48,0000.09,0000.25,-000.07,0000.33,0000.41,0000.29,19.4,25.9,03.6,02.4,0683.3,31.2
2021-04-28T11:21:00Z,00040200,00000000,0001.48,0000.81,0000.47,0000.04,0000.02,0000.13,0000.38,0000.42,0000.52,19.4,25.9,03.6,02.4,0683.3,31.2
2021-04-28T11:22:00Z,00040200,00000000,0000.78,0000.60,0000.23,-000.25,0000.15,-000.27,0000.48,0000.26,0000.23,19.4,25.9,03.5,02.4,0683.3,31.2
2021-04-28T11:23:00Z,00040200,00000000,0000.84,0000.57,0000.47,-000.25,0000.07,0000.22,0000.56,-000.00,0000.26,19.4,25.9,03.5,02.3,0683.3,31.2
2021-04-28T11:24:00Z,00040200,00000000,0001.07,0001.05,0000.58,0000.03,0000.15,0000.20,0000.06,0000.43,-000.17,19.4,25.9,03.5,02.3,0683.3,31.2
2021-04-28T11:25:00Z,00040200,00000000,0001.49,0000.67,0000.46,-000.33,0000.32,0000.43,0000.50,0000.37,0000.34,19.4,25.9,03.4,02.3,0683.3,31.2
2021-04-28T11:26:00Z,00040200,00000000,0000.94,0000.94,0000.45,-000.06,0000.02,0000.37,0000.22,0000.16,0000.58,19.4,26.0,03.4,02.3,0683.3,31.2
2021-04-28T11:27:00Z,00040200,00000000,0001.32,0001.01,0000.65,-000.11,0000.10,0000.15,0000.08,0000.26,-000.29,19.4,26.0,03.2,02.2,0683.3,31.2
2021-04-28T11:28:00Z,00040200,00000000,0000.87,0000.62,0000.63,0000.40,-000.03,0000.38,0000.34,0000.45,0000.29,19.4,26.0,03.2,02.1,0683.3,31.2
2021-04-28T11:29:00Z,00040200,00000000,0000.93,0000.74,0000.77,0000.12,0000.25,0000.56,0000.40,0000.27,0000.25,19.4,26.0,03.2,02.1,0683.3,31.2
2021-04-28T11:30:00Z,00040200,00000000,0001.04,0000.94,0000.72,0000.01,0000.05,0000.43,0000.44,0000.01,0000.07,19.5,26.0,03.0,02.1,0683.3,31.2
2021-04-28T11:31:00Z,00040200,00000000,0000.91,0000.78,0000.52,-000.27,0000.21,-000.07,0000.23,0000.36,0000.51,19.5,26.0,03.0,02.0,0683.3,31.2
2021-04-28T11:32:00Z,00040200,00000000,0000.93,0000.64,0000.43,0000.47,-000.02,0000.34,0000.08,0000.36,-000.05,19.5,26.0,03.0,02.0,0683.3,31.2
2021-04-28T11:33:00Z,00040200,00000000,0001.48,0001.10,0000.92,-000.14,0000.12,0000.41,0000.40,0000.10,0000.69,19.5,26.0,02.9,02.0,0683.4,31.2
2021-04-28T11:34:00Z,00040200,00000000,0001.21,0000.54,0000.74,0000.01,0000.21,0000.24,0000.11,0000.28,-000.26,19.5,26.0,02.9,01.9,0683.3,31.2
2021-04-28T11:35:00Z,00040200,00000000,0000.74,0000.82,0000.58,0000.06,-000.03,0000.01,0000.83,0000.72,0000.44,19.5,26.0,02.9,01.9,0683.4,31.2
2021-04-28T11:36:00Z,00040200,00000000,0001.05,0001.17,0000.49,0000.08,0000.23,0000.00,0000.29,0000.12,0000.21,19.5,26.0,02.9,01.9,0683.3,31.2
2021-04-28T11:37:00Z,00040200,00000000,0001.26,0000.79,0000.90,-000.06,0000.12,0000.17,0000.09,0000.02,0000.09,19.5,26.0,02.7,01.8,0683.3,31.2
2021-04-28T11:38:00Z,00040200,00000000,0000.69,0000.69,0000.56,0000.33,0000.32,0000.41,0000.26,0000.37,0000.17,19.5,26.0,02.7,01.8,0683.4,31.2
2021-04-28T11:39:00Z,00040200,00000000,0001.35,0000.76,0000.45,0000.06,0000.29,-000.09,0000.35,0000.49,0000.23,19.5,26.0,02.6,01.7,0683.4,31.2
2021-04-28T11:40:00Z,00040200,00000000,0001.28,0000.54,0000.46,0000.13,0000.07,0000.11,0000.41,0000.38,0000.31,19.5,26.0,02.6,01.8,0683.4,31.2
2021-04-28T11:41:00Z,00040200,00000000,0000.92,0000.75,0000.65,-000.07,0000.15,0000.35,0000.23,0000.44,-000.09,19.5,26.0,02.6,01.7,0683.4,31.2
2021-04-28T11:42:00Z,00040200,00000000,0000.39,0000.71,0000.62,0000.37,0000.16,0000.05,0000.33,-000.30,0000.42,19.5,26.0,02.5,01.7,0683.4,31.2
2021-04-28T11:43:00Z,00040200,00000000,0001.20,0000.57,0000.61,0000.10,0000.22,0000.18,0000.37,0000.42,0000.08,19.5,26.1,02.5,01.7,0683.4,31.2
2021-04-28T11:44:00Z,00040200,00000000,0000.70,0001.14,0000.64,0000.34,0000.21,0000.23,0000.20,0000.13,0000.32,19.6,26.1,02.4,01.6,0683.4,31.2
2021-04-28T11:45:00Z,00040200,00000000,0001.13,0000.85,0000.38,0000.07,0000.18,0000.17,0000.41,0000.53,0000.19,19.6,26.1,02.3,01.6,0683.4,31.2
2021-04-28T11:46:00Z,00040200,00000000,0001.30,0001.16,0000.58,0000.40,0000.42,0000.11,0000.56,0000.13,0000.45,19.6,26.1,02.3,01.6,0683.4,31.2
2021-04-28T11:47:00Z,00040200,00000000,0001.98,0000.95,0000.90,0000.28,0000.27,0000.46,0000.30,0000.61,0000.43,19.6,26.1,02.3,01.5,0683.4,31.2
2021-04-28T11:48:00Z,00040200,00000000,0001.01,0000.77,0000.83,-000.10,0000.38,0000.14,-000.01,0000.19,-000.24,19.6,26.1,02.4,01.6,0683.4,31.2
2021-04-28T11:49:00Z,00040200,00000000,0001.16,0000.85,0000.67,0000.30,0000.28,0000.07,0000.73,0000.58,0000.48,19.6,26.1,02.3,01.6,0683.4,31.2
2021-04-28T11:50:00Z,00040200,00000000,0001.38,0000.83,0000.49,0000.35,0000.27,0000.18,0000.66,0000.53,0000.40,19.6,26.1,02.3,01.6,0683.4,31.2
2021-04-28T11:51:00Z,00040200,00000000,0001.86,0000.86,0000.51,0000.23,-000.04,-000.25,0000.34,0000.66,0000.16,19.6,26.1,02.4,01.6,0683.4,31.2
2021-04-28T11:52:00Z,00040200,00000000,0001.16,0000.56,0000.51,-000.06,0000.10,0000.13,0000.83,0000.27,0000.68,19.6,26.1,02.3,01.5,0683.4,31.2
2021-04-28T11:53:00Z,00040200,00000000,0001.06,0001.00,0000.25,-000.04,0000.16,0000.02,0000.52,0000.35,0000.16,19.6,26.1,02.3,01.5,0683.4,31.2
2021-04-28T11:54:00Z,00040200,00000000,0001.49,0000.95,0000.72,-000.12,0000.32,0000.17,0000.16,0000.63,0000.19,19.6,26.1,02.3,01.6,0683.4,31.2
2021-04-28T11:55:00Z,00040200,00000000,0000.68,0000.69,0000.43,0000.32,-000.13,0000.14,0000.39,-000.10,0000.49,19.6,26.1,02.4,01.6,0683.4,31.2
2021-04-28T11:56:00Z,00040200,00000000,0001.08,0000.73,0000.72,0000.41,0000.26,0000.21,0000.54,0000.67,0000.34,19.6,26.1,02.3,01.6,0683.4,31.2
2021-04-28T11:57:00Z,00040200,40000000,,,,,,,0000.30,0000.51,0000.36,19.7,26.2,02.2,01.5,0683.4,31.2
2021-04-28T11:58:00Z,00040200,60000000,,,,,,,-000.15,-000.17,-000.45,19.5,26.3,02.2,01.4,0682.4,31.2
2021-04-28T11:59:00Z,00040200,20000000,,,,,,,-000.09,-000.26,0000.20,19.5,26.4,02.3,01.5,0682.3,31.2
